sat.trackr.live / text

‹ back to catalog

STARLINK-3051

NORAD 49157 · 2021-082AD

PAYLOAD ACTIVE UNKNOWN

§ Identity

Operator
Country
US
Launch date
2021-09-14
Launch site
AFWTR
Launch vehicle
Mass (kg)
RCS (m²)

Purposes: comms

External: N2YO · Heavens-Above · Gunter

§ Orbital elements

Epoch: 2026-09-15T16:08:12.310944Z

Period
95.56 min
Inclination
69.9968°
Eccentricity
0.0005313
Mean motion
15.06969521 rev/d
Perigee alt
541.8 km
Apogee alt
549.1 km
Semi-major
6,923.6 km
B*
3.4813e-4
RAAN
147.1666°
Arg perigee
302.9573°
Mean anomaly
57.1079°
Rev number
27,623

§ Raw data

STARLINK-30511 49157U 21082AD  26258.67236471  .00005123  00000+0  34813-3 0  99902 49157  69.9968 147.1666 0005313 302.9573  57.1079 15.06969521276230

JSON: /api/v1/satellites/49157 · /tle

For live sub-satellite position, see the globe view (requires WebGL).

§ Visibility from observer

Set your observer location to see the next 7 days of passes ≥ 10°. The values pass through the URL so the page stays shareable.

No JS? Fill the form by hand. The geolocation button needs JavaScript.